Location: Arleux
(50.3632°N, 2.8721°E)
Time: 12:21:38
(UTC+00:00)

IRIDIUM 104 - Pass Details

Date: 15 December 2019
Orbit: 776 x 779 km, 86.4° (Epoch: 27 January)

Event Time Altitude Azimuth Distance (km) Brightness Sun altitude
Rises 06:18:05 0° 352° (N) 3,276 7.3 -12.5°
Reaches altitude 10° 06:20:29 10° 349° (N) 2,343 6.5 -12.1°
Maximum altitude 06:25:37 58° 272° (W) 906 4.4 -11.3°
Drops below altitude 10° 06:30:42 10° 194° (SSW) 2,323 6.9 -10.6°
Sets 06:33:04 0° 190° (S) 3,246 7.7 -10.3°
